Change the Weather History Date:

Thursday, May 15, 2014

  Actual Average Record
Temperature  
Mean Temperature 57 °F 62 °F  
Max Temperature 68 °F 73 °F 92 °F (1991)
Min Temperature 45 °F 52 °F 36 °F (1984)
Degree Days  
Heating Degree Days 8 5  
Month to date heating degree days 59 92  
Since 1 July heating degree days 5580 5174  
Cooling Degree Days 0 2  
Month to date cooling degree days 61 20  
Year to date cooling degree days 69 32  
Growing Degree Days 8 (Base 50)    
Moisture  
Dew Point 54 °F    
Average Humidity 76    
Maximum Humidity 90    
Minimum Humidity 61    
Precipitation  
Precipitation 0.63 in 0.14 in 1.07 in (1985)
Month to date precipitation 3.84 1.91  
Year to date precipitation 16.69 13.31  
Snow  
Snow 0.00 in 0.00 in 0.00 in ()
Month to date snowfall 0.0 0.0  
Since 1 July snowfall 56.4 26.7  
Snow Depth 0.00 in    
Sea Level Pressure  
Sea Level Pressure 29.88 in    
Wind  
Wind Speed 11 mph (SW)    
Max Wind Speed 26 mph    
Max Gust Speed 32 mph    
Visibility 8 miles    
Events Rain    
T = Trace of Precipitation, MM = Missing Value Source: NWS Daily Summary

Daily Weather History Graph

Daily Weather History Graph

Search for Another Location

Airport or City:

Trip Planner

Search our weather history database for the weather conditions in past years. The results will help you decide how hot, cold, wet, or windy it might be!

Date:

Astronomy

May. 15, 2014 Rise Set
Actual Time 6:16 AM EDT 8:40 PM EDT
Civil Twilight 5:45 AM EDT 9:10 PM EDT
Nautical Twilight 5:07 AM EDT 9:48 PM EDT
Astronomical Twilight 4:25 AM EDT 10:30 PM EDT
Moon 9:46 PM EDT (5/15) 7:02 AM EDT (5/15)
Length of Visible Light 15h 25m
Length of Day
14h 23m
Full, 99% of the Moon is Illuminated
May 15
Full
May 21
Last Quarter
May 28
New
Jun 5
First Quarter
Jun 13
Full

Hourly Weather History & Observations

Time (EDT) Temp. Dew Point Humidity Pressure Visibility Wind Dir Wind Speed Gust Speed Precip Events Conditions
12:19 AM 68.0 °F 64.4 °F 88% 29.93 in 3.0 mi SSW 5.8 mph 16.1 mph 0.03 in Rain Light Rain
12:31 AM 68.0 °F 64.4 °F 88% 29.90 in 5.0 mi SSE 5.8 mph - 0.10 in Rain Light Rain
12:51 AM 68.0 °F 64.0 °F 87% 29.88 in 5.0 mi South 4.6 mph - 0.11 in Rain Light Rain
1:06 AM 68.0 °F 64.4 °F 88% 29.89 in 8.0 mi SE 4.6 mph - 0.00 in   Overcast
1:35 AM 66.2 °F 64.4 °F 94% 29.88 in 2.5 mi SE 3.5 mph - 0.09 in Rain Heavy Rain
1:48 AM 66.2 °F 64.4 °F 94% 29.87 in 7.0 mi ESE 8.1 mph - 0.09 in   Overcast
1:51 AM 68.0 °F 64.0 °F 87% 29.85 in 8.0 mi ESE 8.1 mph - 0.09 in   Overcast
2:51 AM 66.9 °F 63.0 °F 87% 29.82 in 10.0 mi Calm Calm - 0.00 in Rain Light Rain
3:51 AM 66.2 °F 62.6 °F 88% 29.81 in 10.0 mi SE 5.8 mph - N/A   Overcast
4:51 AM 66.9 °F 62.1 °F 84% 29.79 in 4.0 mi South 10.4 mph 17.3 mph 0.08 in Rain Heavy Rain
5:46 AM 66.2 °F 62.6 °F 88% 29.79 in 4.0 mi South 3.5 mph - 0.09 in Rain Rain
5:51 AM 66.0 °F 63.0 °F 90% 29.77 in 3.0 mi Calm Calm - 0.11 in Rain Rain
5:59 AM 66.2 °F 62.6 °F 88% 29.78 in 3.0 mi Calm Calm - 0.03 in Rain Rain
6:29 AM 66.2 °F 62.6 °F 88% 29.78 in 4.0 mi SSE 4.6 mph - 0.11 in Rain Rain
6:46 AM 66.2 °F 62.6 °F 88% 29.77 in 5.0 mi SE 9.2 mph - 0.13 in Rain Light Rain
6:51 AM 66.0 °F 63.0 °F 90% 29.75 in 5.0 mi SE 9.2 mph - 0.13 in Rain Light Rain
7:51 AM 66.9 °F 62.1 °F 84% 29.77 in 8.0 mi SSE 11.5 mph - 0.00 in   Overcast
8:51 AM 68.0 °F 62.1 °F 81% 29.75 in 10.0 mi SSE 11.5 mph 20.7 mph 0.00 in   Overcast
9:29 AM 64.4 °F 60.8 °F 88% 29.79 in 1.0 mi WSW 26.5 mph 32.2 mph 0.00 in Rain Light Rain
9:36 AM 62.6 °F 57.2 °F 82% 29.79 in 2.0 mi WSW 17.3 mph 32.2 mph 0.09 in Rain Heavy Rain
9:44 AM 60.8 °F 59.0 °F 94% 29.79 in 2.0 mi WSW 12.7 mph 23.0 mph 0.16 in Rain Heavy Rain
9:51 AM 62.1 °F 59.0 °F 90% 29.78 in 2.0 mi WSW 12.7 mph - 0.18 in Rain Rain
10:00 AM 62.6 °F 59.0 °F 88% 29.81 in 2.5 mi SW 10.4 mph - 0.01 in Rain Light Rain
10:26 AM 62.6 °F 59.0 °F 88% 29.82 in 6.0 mi WSW 10.4 mph 23.0 mph 0.02 in Rain Light Rain
10:38 AM 60.8 °F 57.2 °F 88% 29.83 in 6.0 mi WSW 16.1 mph 20.7 mph 0.02 in Rain Light Rain
10:51 AM 61.0 °F 57.9 °F 90% 29.82 in 6.0 mi WSW 15.0 mph - 0.03 in Rain Light Rain
11:16 AM 60.8 °F 57.2 °F 88% 29.84 in 10.0 mi SW 12.7 mph - 0.00 in Rain Light Rain
11:51 AM 59.0 °F 53.1 °F 81% 29.86 in 10.0 mi WSW 16.1 mph 24.2 mph 0.00 in   Overcast
11:59 AM 57.2 °F 53.6 °F 88% 29.87 in 10.0 mi WSW 16.1 mph 25.3 mph N/A   Overcast
12:31 PM 57.2 °F 53.6 °F 88% 29.88 in 10.0 mi WSW 11.5 mph - 0.00 in Rain Light Rain
12:51 PM 57.0 °F 51.1 °F 81% 29.88 in 10.0 mi SW 17.3 mph 24.2 mph 0.00 in Rain Light Rain
1:38 PM 55.4 °F 48.2 °F 77% 29.90 in 10.0 mi West 13.8 mph - 0.00 in   Overcast
1:49 PM 57.2 °F 50.0 °F 77% 29.90 in 10.0 mi WSW 13.8 mph 21.9 mph N/A   Overcast
1:51 PM 57.2 °F 48.2 °F 72% 29.89 in 10.0 mi WSW 16.1 mph 20.7 mph N/A   Overcast
3:51 PM 57.0 °F 46.0 °F 67% 29.92 in 10.0 mi WSW 12.7 mph - 0.00 in   Overcast
4:51 PM 55.9 °F 45.0 °F 67% 29.94 in 9.0 mi West 16.1 mph 23.0 mph N/A   Overcast
4:58 PM 55.4 °F 44.6 °F 67% 29.95 in 10.0 mi WSW 12.7 mph 23.0 mph N/A   Overcast
5:51 PM 55.9 °F 44.1 °F 64% 29.94 in 10.0 mi WSW 11.5 mph 23.0 mph N/A   Overcast
5:58 PM 55.4 °F 44.6 °F 67% 29.95 in 10.0 mi WSW 11.5 mph - N/A   Overcast
6:51 PM 55.9 °F 43.0 °F 62% 29.96 in 10.0 mi WSW 12.7 mph - N/A   Overcast
7:51 PM 55.4 °F 42.8 °F 63% 29.99 in 10.0 mi West 13.8 mph 18.4 mph N/A   Overcast
8:31 PM 53.6 °F 42.8 °F 67% 30.00 in 10.0 mi WNW 15.0 mph 21.9 mph N/A   Overcast
8:51 PM 52.0 °F 41.0 °F 66% 30.01 in 10.0 mi WNW 16.1 mph - N/A   Overcast
9:48 PM 50.0 °F 39.2 °F 66% 30.03 in 10.0 mi WNW 12.7 mph 19.6 mph N/A   Mostly Cloudy
9:51 PM 50.0 °F 39.9 °F 68% 30.03 in 10.0 mi WNW 12.7 mph 19.6 mph N/A   Mostly Cloudy
10:18 PM 50.0 °F 39.2 °F 66% 30.03 in 10.0 mi WNW 16.1 mph - N/A   Mostly Cloudy
10:51 PM 48.9 °F 39.0 °F 69% 30.04 in 10.0 mi WNW 11.5 mph - N/A   Mostly Cloudy
10:58 PM 48.2 °F 39.2 °F 71% 30.04 in 10.0 mi WNW 9.2 mph - N/A   Overcast
11:51 PM 48.0 °F 37.0 °F 66% 30.05 in 10.0 mi WNW 10.4 mph - N/A   Mostly Cloudy